Location: Unspecified
(48.8656°N, 0.0000°E)
Time: 19:54:18
(UTC+00:00)

Vanguard 1 - Pass Details

Date: 22 June 2019
Orbit: 653 x 3830 km, 34.3° (Epoch: 20 July)

Event Time Altitude Azimuth Distance (km) Brightness Sun altitude
Rises 03:23:59 0° 237° (WSW) 7,410 - -4.8°
Exits shadow 03:26:32 - 235° (SW) 6,813 13.7 -4.5°
Reaches altitude 10° 03:30:04 10° 231° (SW) 5,965 13.4 -4.1°
Maximum altitude 03:44:16 36° 174° (S) 3,002 12.3 -2.4°
Drops below altitude 10° 03:52:47 10° 112° (ESE) 3,589 13.4 -1.3°
Sets 03:55:27 0° 103° (ESE) 4,242 13.9 -1.0°
